Terminal Aerodrome Forecast
Issued by NWS

Home | Current Version | Previous Version | Graphics & Text | Print | Product List | Glossary On
Versions: 1 2 3 4 5 6 7 8 9 10 11 12 13 14 15
000
FTUS43 KTOP 251700
TAFMHK
TAF
KMHK 251727Z 2518/2618 23010KT P6SM BKN100
     FM252100 33020G28KT P6SM VCSH SCT027 BKN040
     FM260000 36025G32KT 6SM -SN OVC025
     FM260200 01017G26KT P6SM OVC020
     FM261500 01014G20KT P6SM SCT025=

USA.gov is the U.S. government's official web portal to all federal, state and local government web resources and services.